| time (UTC) | temp C | wind direction | speed KPH | gust KPH | rain 1hr cm | rain 24hr cm | rain mn cm | humidity % | barometer mb |
| 20260503020732 | 14 | 91 | 0.0 | 8.0 | 0.00 | 1.12 | 0.03 | 92 | 1011.1 |
| 20260503010733 | 14 | 155 | 0.0 | 12.9 | 0.00 | 1.12 | 0.03 | 93 | 1011.2 |
| 20260503000736 | 15 | 98 | 1.6 | 8.0 | 0.03 | 1.12 | 0.03 | 93 | 1011.9 |
| 20260502230730 | 14 | 48 | 1.6 | 11.3 | 0.00 | 1.09 | 0.00 | 92 | 1012.1 |
| 20260502220732 | 14 | 37 | 1.6 | 9.7 | 0.13 | 1.09 | 0.00 | 92 | 1012.8 |
| 20260502210730 | 15 | 321 | 1.6 | 22.5 | 0.99 | 0.99 | 0.99 | 88 | 1014.3 |
| 20260502200731 | 20 | 37 | 3.2 | 9.7 | 0.00 | 0.00 | 0.00 | 62 | 1012.4 |
| 20260502193733 | 21 | 39 | 0.0 | 8.0 | 0.00 | 0.00 | 0.00 | 59 | 1012.7 |
| 20260502180731 | 22 | 51 | 0.0 | 11.3 | 0.00 | 0.00 | 0.00 | 56 | 1012.7 |
| 20260502160733 | 25 | 236 | 3.2 | 14.5 | 0.00 | 0.00 | 0.00 | 45 | 1014.5 |
| 20260502160727 | 26 | 290 | 0.0 | 14.5 | 0.00 | 0.00 | 0.00 | 44 | 1013.7 |
| 20260502130724 | 23 | 194 | 3.2 | 12.9 | 0.00 | 0.00 | 0.00 | 54 | 1016.2 |
| 20260502120725 | 23 | 193 | 3.2 | 16.1 | 0.00 | 0.00 | 0.00 | 54 | 1016.7 |
| 20260502113716 | 22 | 223 | 3.2 | 19.3 | 0.00 | 0.00 | 0.00 | 54 | 1017.0 |
| 20260502103716 | 21 | 184 | 4.8 | 16.1 | 0.00 | 0.00 | 0.00 | 56 | 1017.6 |
| 20260502090712 | 20 | 174 | 3.2 | 8.0 | 0.00 | 0.00 | 0.00 | 56 | 1017.9 |
| 20260502070708 | 15 | 179 | 1.6 | 4.8 | 0.00 | 0.00 | 0.00 | 59 | 1017.9 |
| 20260502060710 | 13 | 179 | 0.0 | 8.0 | 0.00 | 0.00 | 0.00 | 56 | 1018.0 |
| 20260502050659 | 13 | 179 | 1.6 | 8.0 | 0.00 | 0.00 | 0.00 | 54 | 1017.7 |
| 20260502040658 | 11 | 179 | 0.0 | 1.6 | 0.00 | 0.00 | 0.00 | 56 | 1017.6 |
| 20260502030656 | 11 | 179 | 0.0 | 3.2 | 0.00 | 0.00 | 0.00 | 56 | 1018.0 |
| 20260502023654 | 12 | 179 | 0.0 | 3.2 | 0.00 | 0.00 | 0.00 | 54 | 1018.4 |